Regional Weather Roundup
Issued by NWS

Home | Current Version | Previous Version | Text Only | Print | Product List | Glossary Off
Versions: 1 2 3 4 5 6 7 8 9 10 11 12 13 14 15 16 17 18 19 20 21 22 23 24 25 26 27 28 29 30 31 32 33 34 35 36 37 38 39 40 41 42 43 44 45 46 47 48 49 50

833
ASUS45 KCYS 230510
RWRWY

WYOMING REGIONAL WEATHER ROUNDUP
NATIONAL WEATHER SERVICE CHEYENNE WY
1100 PM MDT THU JUN 22 2017

NOTE:  "FAIR" INDICATES FEW OR NO CLOUDS BELOW 12,000 FEET
WITH NO SIGNIFICANT WEATHER AND/OR OBSTRUCTIONS TO VISIBILITY.

WYZ001-230600-
YELLOWSTONE NATIONAL PARK

CITY           SKY/WX    TMP DP  RH WIND       PRES   REMARKS
LK YELLOWSTONE   N/A     45  25  45 VRB6      30.34R
W YELLOWSTONE  NOT AVBL

$$
WYZ002>013-054>058-071-098>099-230600-
NORTHERN WYOMING

CITY           SKY/WX    TMP DP  RH WIND       PRES   REMARKS
JACKSON        FAIR      54  34  47 CALM      30.20R
CODY           MOCLDY    52  35  52 N18G25    30.31R
GREYBULL       FAIR      62  30  29 N32G38    30.20R
WORLAND        FAIR      61  30  31 N21G28    30.16R
SHERIDAN       CLOUDY    57  34  41 NW17G23   30.26R
BUFFALO        MOCLDY    55  28  35 N22G30    30.26R
GILLETTE       CLOUDY    58  32  37 N21       30.20R
NEWCASTLE      MOCLDY    61  28  29 NW13G25   30.12R

$$
WYZ014>020-022>026-101>103-230600-
CENTRAL WYOMING

CITY           SKY/WX    TMP DP  RH WIND       PRES   REMARKS
BIG PINEY      FAIR      48  30  49 N12       30.24R
PINEDALE       FAIR      46  28  49 NW13      30.24R
DUBOIS         FAIR      52  23  32 NW7       30.23R
LANDER         FAIR      58  26  29 NE12      30.24R
RIVERTON       FAIR      58  25  28 NE20      30.20R
CASPER         CLOUDY    60  32  34 N20       30.19R
DOUGLAS        CLOUDY    61  34  36 NE16G30   30.15R

$$
WYZ021-027>030-104>119-230600-
SOUTHERN WYOMING

CITY           SKY/WX    TMP DP  RH WIND       PRES   REMARKS
EVANSTON       FAIR      58  33  39 W8        30.24R
KEMMERER         N/A     54  34  47 NW8       30.26R
FORT BRIDGER   FAIR      62  34  36 NW8       30.26R
ROCK SPRINGS   FAIR      59  28  30 NE15      30.21R
DIXON          FAIR      62  21  20 E6        30.12S
RAWLINS        FAIR      58  35  42 N17G25    30.17R
SARATOGA       FAIR      55  37  50 NW9G17    30.13R
LARAMIE        FAIR      56  40  55 NE12      30.17R
CHEYENNE       CLOUDY    64  51  62 NE10      30.12R
TORRINGTON     LGT RAIN  66  44  45 NE15      30.04R
PINE BLUFFS    CLOUDY    64  52  63 E9        30.07R

$$




USA.gov is the U.S. government's official web portal to all federal, state and local government web resources and services.